When you browse on this site, cookies collect data to enhance your experience and personalize the content and advertising you see.
Visit our Privacy Policy to learn more. By continuing to use the site, you agree to this use of cookies and data.
  • En España
  • Lista de países
  • Para 7 días
  • Temperatura del agua
  • El tiempo en el mapa
  • Informadores
  • user-avatar
    Iniciar sesión

    Tiempo cada hora Korçe

    Hoy, 17 Octubre, Jueves

    Tiempo Temperatura Precipitaciones Viento Presión Humedad
    00:00 +12°C° 0 mm 0 mps 668 mmHg 67%
    01:00 +12°C° 0 mm 0 mps 668 mmHg 69%
    02:00 +11°C° 0 mm 0 mps 668 mmHg 70%
    03:00 +11°C° 0 mm 0 mps 667 mmHg 70%
    04:00 +11°C° 0 mm 0 mps 667 mmHg 71%
    05:00 +12°C° 0 mm 0 mps 668 mmHg 69%
    06:00 +13°C° 0 mm 1 mps 668 mmHg 67%
    07:00 +15°C° 0 mm 1 mps 669 mmHg 64%
    08:00 +18°C° 0 mm 1 mps 669 mmHg 57%
    09:00 +20°C° 0 mm 1 mps 670 mmHg 50%
    10:00 +22°C° 0 mm 1 mps 671 mmHg 44%
    11:00 +22°C° 0 mm 1 mps 671 mmHg 41%
    12:00 +23°C° 0 mm 1 mps 670 mmHg 39%
    13:00 +23°C° 0 mm 2 mps 670 mmHg 36%
    14:00 +21°C° 0 mm 2 mps 670 mmHg 41%
    15:00 +20°C° 0 mm 2 mps 670 mmHg 46%
    16:00 +19°C° 0 mm 2 mps 669 mmHg 51%
    17:00 +18°C° 0 mm 1 mps 669 mmHg 58%
    18:00 +16°C° 0 mm 1 mps 669 mmHg 66%
    19:00 +13°C° 0 mm 0 mps 668 mmHg 73%
    20:00 +13°C° 0 mm 0 mps 668 mmHg 74%
    21:00 +12°C° 0 mm 0 mps 669 mmHg 75%
    22:00 +12°C° 0 mm 0 mps 669 mmHg 76%
    23:00 +12°C° 0 mm 0 mps 669 mmHg 77%

    Mañana, 18 Octubre, Viernes

    Tiempo Temperatura Precipitaciones Viento Presión Humedad
    00:00 +11°C° 0 mm 0 mps 668 mmHg 78%
    01:00 +11°C° 0 mm 0 mps 668 mmHg 79%
    02:00 +11°C° 0 mm 0 mps 668 mmHg 80%
    03:00 +12°C° 0 mm 1 mps 668 mmHg 80%
    04:00 +12°C° 0 mm 1 mps 668 mmHg 81%
    05:00 +12°C° 0 mm 1 mps 668 mmHg 79%
    06:00 +13°C° 0 mm 1 mps 668 mmHg 76%
    07:00 +13°C° 0 mm 0 mps 669 mmHg 74%
    08:00 +16°C° 0 mm 1 mps 669 mmHg 65%
    09:00 +19°C° 0 mm 1 mps 670 mmHg 56%
    10:00 +21°C° 0 mm 1 mps 670 mmHg 47%
    11:00 +21°C° 0 mm 1 mps 670 mmHg 44%
    12:00 +21°C° 0 mm 2 mps 670 mmHg 40%
    13:00 +21°C° 0 mm 2 mps 670 mmHg 37%
    14:00 +20°C° 0 mm 2 mps 670 mmHg 42%
    15:00 +20°C° 0 mm 2 mps 669 mmHg 47%
    16:00 +19°C° 0 mm 2 mps 669 mmHg 52%
    17:00 +18°C° 0 mm 1 mps 669 mmHg 62%
    18:00 +15°C° 0 mm 1 mps 668 mmHg 73%
    19:00 +13°C° 0 mm 1 mps 668 mmHg 83%
    20:00 +13°C° 0 mm 1 mps 668 mmHg 84%
    21:00 +12°C° 0 mm 0 mps 668 mmHg 86%
    22:00 +11°C° 0 mm 0 mps 668 mmHg 87%
    23:00 +11°C° 0 mm 0 mps 668 mmHg 87%

    Pasado mañana, 19 Octubre, Sábado

    Tiempo Temperatura Precipitaciones Viento Presión Humedad
    00:00 +11°C° 0 mm 0 mps 668 mmHg 87%
    01:00 +11°C° 0 mm 0 mps 668 mmHg 88%
    02:00 +10°C° 0 mm 0 mps 668 mmHg 87%
    03:00 +10°C° 0 mm 0 mps 668 mmHg 87%
    04:00 +10°C° 0 mm 0 mps 668 mmHg 87%
    05:00 +11°C° 0 mm 0 mps 668 mmHg 84%
    06:00 +11°C° 0 mm 0 mps 668 mmHg 81%
    07:00 +13°C° 0 mm 1 mps 668 mmHg 78%
    08:00 +15°C° 0 mm 1 mps 669 mmHg 68%
    09:00 +18°C° 0 mm 1 mps 670 mmHg 58%
    10:00 +20°C° 0 mm 1 mps 671 mmHg 48%
    11:00 +21°C° 0 mm 1 mps 671 mmHg 45%
    12:00 +20°C° 0 mm 2 mps 671 mmHg 42%
    13:00 +21°C° 0 mm 2 mps 671 mmHg 38%
    14:00 +20°C° 0 mm 2 mps 670 mmHg 42%
    15:00 +19°C° 0 mm 2 mps 670 mmHg 46%
    16:00 +20°C° 0 mm 1 mps 670 mmHg 50%
    17:00 +18°C° 0 mm 1 mps 669 mmHg 59%
    18:00 +15°C° 0 mm 1 mps 669 mmHg 68%
    19:00 +13°C° 0 mm 1 mps 669 mmHg 77%
    20:00 +12°C° 0 mm 0 mps 669 mmHg 78%
    21:00 +11°C° 0 mm 0 mps 669 mmHg 79%
    22:00 +11°C° 0 mm 0 mps 669 mmHg 79%
    23:00 +12°C° 0 mm 1 mps 669 mmHg 78%

    20 Octubre, Domingo

    Tiempo Temperatura Precipitaciones Viento Presión Humedad
    00:00 +12°C° 0 mm 1 mps 669 mmHg 77%
    01:00 +12°C° 0 mm 1 mps 669 mmHg 75%
    02:00 +11°C° 0 mm 1 mps 669 mmHg 75%
    03:00 +11°C° 0 mm 1 mps 669 mmHg 74%
    04:00 +11°C° 0 mm 1 mps 669 mmHg 74%
    05:00 +12°C° 0 mm 1 mps 669 mmHg 72%
    06:00 +12°C° 0 mm 1 mps 669 mmHg 70%
    07:00 +13°C° 0 mm 1 mps 670 mmHg 68%
    08:00 +15°C° 0 mm 1 mps 670 mmHg 59%
    09:00 +19°C° 0 mm 1 mps 671 mmHg 51%
    10:00 +21°C° 0 mm 1 mps 672 mmHg 43%
    11:00 +22°C° 0 mm 1 mps 672 mmHg 40%
    12:00 +22°C° 0 mm 1 mps 672 mmHg 37%
    13:00 +23°C° 0 mm 1 mps 672 mmHg 35%
    14:00 +22°C° 0 mm 1 mps 672 mmHg 39%
    15:00 +21°C° 0 mm 1 mps 671 mmHg 43%
    16:00 +20°C° 0 mm 1 mps 671 mmHg 47%
    17:00 +18°C° 0 mm 1 mps 671 mmHg 54%
    18:00 +15°C° 0 mm 1 mps 670 mmHg 62%
    19:00 +14°C° 0 mm 1 mps 670 mmHg 70%
    20:00 +13°C° 0 mm 1 mps 670 mmHg 70%
    21:00 +13°C° 0 mm 1 mps 670 mmHg 70%
    22:00 +13°C° 0 mm 1 mps 670 mmHg 70%
    23:00 +13°C° 0 mm 1 mps 670 mmHg 70%

    21 Octubre, Lunes

    Tiempo Temperatura Precipitaciones Viento Presión Humedad
    00:00 +12°C° 0 mm 1 mps 670 mmHg 69%
    01:00 +11°C° 0 mm 0 mps 670 mmHg 69%
    02:00 +12°C° 0 mm 1 mps 670 mmHg 69%
    03:00 +12°C° 0 mm 1 mps 670 mmHg 69%
    04:00 +12°C° 0 mm 1 mps 669 mmHg 69%
    05:00 +12°C° 0 mm 1 mps 670 mmHg 67%
    06:00 +13°C° 0 mm 1 mps 670 mmHg 66%
    07:00 +14°C° 0 mm 1 mps 670 mmHg 64%
    08:00 +16°C° 0 mm 1 mps 671 mmHg 56%
    09:00 +17°C° 0 mm 0 mps 672 mmHg 48%
    10:00 +20°C° 0 mm 0 mps 672 mmHg 40%
    11:00 +22°C° 0 mm 1 mps 672 mmHg 37%
    12:00 +23°C° 0 mm 1 mps 672 mmHg 35%
    13:00 +24°C° 0 mm 2 mps 672 mmHg 33%
    14:00 +23°C° 0 mm 2 mps 672 mmHg 38%
    15:00 +21°C° 0 mm 2 mps 671 mmHg 43%
    16:00 +20°C° 0 mm 2 mps 671 mmHg 48%
    17:00 +19°C° 0 mm 1 mps 670 mmHg 54%
    18:00 +16°C° 0 mm 1 mps 670 mmHg 60%
    19:00 +14°C° 0 mm 1 mps 670 mmHg 67%
    20:00 +14°C° 0 mm 1 mps 670 mmHg 66%
    21:00 +14°C° 0 mm 1 mps 670 mmHg 65%
    22:00 +13°C° 0 mm 1 mps 670 mmHg 64%
    23:00 +13°C° 0 mm 1 mps 670 mmHg 63%

    22 Octubre, Martes

    Tiempo Temperatura Precipitaciones Viento Presión Humedad
    00:00 +13°C° 0 mm 1 mps 670 mmHg 62%
    01:00 +13°C° 0 mm 1 mps 670 mmHg 61%
    02:00 +13°C° 0 mm 1 mps 669 mmHg 61%
    03:00 +12°C° 0 mm 1 mps 669 mmHg 60%
    04:00 +12°C° 0 mm 1 mps 669 mmHg 60%
    05:00 +13°C° 0 mm 1 mps 669 mmHg 59%
    06:00 +13°C° 0 mm 1 mps 670 mmHg 58%
    07:00 +14°C° 0 mm 1 mps 670 mmHg 57%
    08:00 +16°C° 0 mm 1 mps 670 mmHg 50%
    09:00 +20°C° 0 mm 1 mps 671 mmHg 42%
    10:00 +22°C° 0 mm 1 mps 672 mmHg 35%
    11:00 +23°C° 0 mm 1 mps 672 mmHg 32%
    12:00 +24°C° 0 mm 1 mps 672 mmHg 30%
    13:00 +24°C° 0 mm 1 mps 672 mmHg 27%
    14:00 +23°C° 0 mm 1 mps 672 mmHg 32%
    15:00 +22°C° 0 mm 1 mps 671 mmHg 36%
    16:00 +20°C° 0 mm 2 mps 671 mmHg 41%
    17:00 +19°C° 0 mm 1 mps 670 mmHg 45%
    18:00 +16°C° 0 mm 1 mps 670 mmHg 49%
    19:00 +15°C° 0 mm 1 mps 669 mmHg 54%
    20:00 +14°C° 0 mm 1 mps 670 mmHg 53%
    21:00 +14°C° 0 mm 1 mps 670 mmHg 53%
    22:00 +14°C° 0 mm 1 mps 670 mmHg 53%
    23:00 +13°C° 0 mm 1 mps 670 mmHg 53%
    Mostrar más